This demonstration page uses our WeatherBlox Daily Observations layout. Learn more.

Left ArrowRight Arrow

41.55636, -103.73856

Hourly Observations for July 11, 2015

Temp ( °F °C ) Dew Point ( °F °C ) Humidity (%) Winds ( mph kmh ) Pressure ( in mb ) Visibility ( mi km ) Precip ( " mm )
12:53 am 00:53 Partly Cloudy 65 18.3 60 15.6 84 84 NE 3 6 29.85 1011 10 16.0934 0 0
1:53 am 01:53 Mostly Cloudy 64 17.8 60 15.6 87 87 Calm 29.87 1012 10 16.0934 0 0
2:53 am 02:53 Partly Cloudy 73 22.8 47 8.3 40 40 SW 15 24 29.84 1010 10 16.0934 0 0
3:53 am 03:53 Clear 64 17.8 55 12.8 73 73 NNW 7 11 29.85 1011 10 16.0934 0 0.0254
4:53 am 04:53 Clear 60 15.6 54 12.2 80 80 NW 7 11 29.88 1012 10 16.0934 0 0
5:53 am 05:53 Sunny 58 14.4 53 11.7 84 84 NW 3 6 29.91 1013 10 16.0934 0 0
6:53 am 06:53 Sunny 60 15.6 54 12.2 80 80 NNW 5 7 29.93 1013 10 16.0934 0 0
7:53 am 07:53 Sunny 65 18.3 56 13.3 73 73 Calm 29.94 1014 10 16.0934 0 0
8:53 am 08:53 Sunny 71 21.7 53 11.7 53 53 Calm 29.95 1014 10 16.0934 0 0
9:53 am 09:53 Sunny 77 25 55 12.8 47 47 Calm 29.93 1014 10 16.0934 0 0
10:53 am 10:53 Sunny 81 27.2 56 13.3 42 42 VRB 5 7 29.92 1013 10 16.0934 0 0
11:53 am 11:53 Sunny 84 28.9 56 13.3 38 38 WSW 6 9 29.91 1013 10 16.0934 0 0
12:53 pm 12:53 Sunny 87 30.6 49 9.4 27 27 Calm 29.9 1012 10 16.0934 0 0
1:53 pm 13:53 Sunny 89 31.7 49 9.4 25 25 W 5 7 29.88 1012 10 16.0934 0 0
2:53 pm 14:53 Sunny 90 32.2 44 6.7 20 20 Calm 29.85 1011 10 16.0934 0 0
3:53 pm 15:53 Sunny 91 32.8 44 6.7 20 20 WSW 6 9 29.85 1011 10 16.0934 0 0
4:53 pm 16:53 Sunny 89 31.7 44 6.7 21 21 Calm 29.86 1011 9 14.48406 0 0
5:53 pm 17:53 Partly Cloudy 88 31.1 49 9.4 26 26 WSW 9 15 29.87 1012 10 16.0934 0 0
6:53 pm 18:53 Sunny 85 29.4 51 10.6 31 31 S 5 7 29.86 1011 10 16.0934 0 0
7:53 pm 19:53 Sunny 80 26.7 58 14.4 47 47 SSE 5 7 29.86 1011 10 16.0934 0 0
8:53 pm 20:53 Clear 73 22.8 61 16.1 66 66 WSW 7 11 29.89 1012 10 16.0934 0 0
9:53 pm 21:53 Mostly Clear 75 23.9 51 10.6 43 43 S 9 15 29.9 1013 10 16.0934 0 0
10:53 pm 22:53 Clear 73 22.8 51 10.6 46 46 S 5 7 29.86 1011 10 16.0934 0 0
11:53 pm 23:53 Clear 67 19.4 54 12.2 63 63 ESE 7 11 29.88 1012 10 16.0934 0 0

Powered by AerisWeather